KLM1199 KFAT-KSFO

Flight info

Callsign KLM1199
Flight time 0h 30m
Altitude 20000
Route NTELL ALWYS CEDES ARCHI DYAMD5
Aircraft B77W/H-SDE1E2E3FGHIJ2J3J4J5M1RWXY/LB1D1

Departure

Time 2026-04-22 00:36
Airport Fresno Yosemite International Airport (KFAT)

Arrival

Time 2026-04-22 01:07
Airport San Francisco International Airport (KSFO)
Time Latitude Longitude Altitude Speed Heading
2026-04-22 00:23 36.77966 -119.71570 348 ft 0 kts 176°
2026-04-22 00:31 36.77959 -119.71569 348 ft 3 kts 176°
2026-04-22 00:31 36.77913 -119.71544 358 ft 0 kts 153°
2026-04-22 00:32 36.77909 -119.71541 357 ft 5 kts 153°
2026-04-22 00:32 36.77882 -119.71525 356 ft 0 kts 157°
2026-04-22 00:32 36.77835 -119.71522 354 ft 23 kts 185°
2026-04-22 00:33 36.77700 -119.71402 359 ft 25 kts 126°
2026-04-22 00:33 36.77598 -119.71226 357 ft 25 kts 125°
2026-04-22 00:33 36.77497 -119.71048 357 ft 25 kts 125°
2026-04-22 00:33 36.77397 -119.70871 352 ft 25 kts 125°
2026-04-22 00:34 36.77296 -119.70693 358 ft 25 kts 126°
2026-04-22 00:34 36.77194 -119.70517 359 ft 25 kts 126°
2026-04-22 00:34 36.77104 -119.70361 357 ft 20 kts 126°
2026-04-22 00:34 36.76988 -119.70283 354 ft 13 kts 192°
2026-04-22 00:35 36.76916 -119.70360 355 ft 14 kts 246°
2026-04-22 00:35 36.76944 -119.70464 356 ft 0 kts 305°
2026-04-22 00:35 36.76971 -119.70510 355 ft 33 kts 305°
2026-04-22 00:36 36.77282 -119.71052 352 ft 120 kts 305°
2026-04-22 00:36 36.77900 -119.72121 476 ft 172 kts 306°
2026-04-22 00:36 36.78599 -119.73333 1334 ft 176 kts 303°
2026-04-22 00:36 36.79380 -119.74611 2028 ft 190 kts 302°
2026-04-22 00:37 36.80123 -119.76047 2528 ft 209 kts 295°
2026-04-22 00:37 36.80879 -119.77781 2834 ft 239 kts 294°
2026-04-22 00:37 36.81707 -119.79646 3539 ft 249 kts 295°
2026-04-22 00:37 36.82562 -119.81547 4428 ft 251 kts 296°
2026-04-22 00:38 36.83614 -119.83324 5298 ft 259 kts 307°
2026-04-22 00:38 36.84825 -119.84999 6226 ft 261 kts 308°
2026-04-22 00:38 36.86053 -119.86646 7085 ft 264 kts 308°
2026-04-22 00:38 36.87310 -119.88337 7921 ft 266 kts 308°
2026-04-22 00:39 36.88574 -119.90049 8771 ft 270 kts 307°
2026-04-22 00:39 36.89853 -119.91796 9631 ft 274 kts 307°
2026-04-22 00:39 36.91147 -119.93577 10340 ft 284 kts 307°
2026-04-22 00:39 36.92519 -119.95483 10721 ft 308 kts 307°
2026-04-22 00:40 36.94016 -119.97576 10969 ft 338 kts 307°
2026-04-22 00:40 36.95654 -119.99867 11372 ft 362 kts 308°
2026-04-22 00:40 36.97359 -120.02245 12258 ft 372 kts 308°
2026-04-22 00:40 36.99101 -120.04673 13376 ft 376 kts 308°
2026-04-22 00:41 37.00840 -120.07099 14011 ft 381 kts 308°
2026-04-22 00:41 37.02623 -120.09593 14017 ft 386 kts 308°
2026-04-22 00:41 37.04427 -120.12120 14020 ft 383 kts 308°
2026-04-22 00:41 37.06200 -120.14606 14020 ft 382 kts 308°
2026-04-22 00:42 37.07970 -120.17092 14020 ft 383 kts 308°
2026-04-22 00:42 37.09743 -120.19586 14017 ft 383 kts 308°
2026-04-22 00:42 37.11512 -120.22079 14018 ft 383 kts 308°
2026-04-22 00:42 37.13285 -120.24577 14015 ft 384 kts 308°
2026-04-22 00:43 37.15060 -120.27082 14009 ft 384 kts 308°
2026-04-22 00:43 37.16838 -120.29593 13998 ft 385 kts 308°
2026-04-22 00:43 37.18614 -120.32103 13997 ft 385 kts 308°
2026-04-22 00:43 37.20393 -120.34619 14000 ft 385 kts 308°
2026-04-22 00:44 37.22169 -120.37132 13998 ft 385 kts 308°
2026-04-22 00:44 37.23947 -120.39651 14001 ft 385 kts 308°
2026-04-22 00:44 37.25723 -120.42168 14000 ft 385 kts 308°
2026-04-22 00:44 37.27501 -120.44691 14001 ft 385 kts 308°
2026-04-22 00:45 37.29278 -120.47213 14000 ft 386 kts 308°
2026-04-22 00:45 37.31054 -120.49737 13993 ft 386 kts 308°
2026-04-22 00:45 37.32830 -120.52262 13999 ft 385 kts 308°
2026-04-22 00:45 37.34605 -120.54787 13985 ft 385 kts 308°
2026-04-22 00:46 37.36382 -120.57318 13986 ft 385 kts 308°
2026-04-22 00:46 37.38156 -120.59846 13991 ft 386 kts 308°
2026-04-22 00:46 37.39933 -120.62381 13986 ft 386 kts 308°
2026-04-22 00:46 37.41696 -120.64922 13978 ft 381 kts 305°
2026-04-22 00:47 37.43022 -120.67748 13984 ft 373 kts 287°
2026-04-22 00:47 37.43696 -120.70882 13992 ft 370 kts 276°
2026-04-22 00:47 37.43955 -120.74096 13988 ft 369 kts 270°
2026-04-22 00:47 37.44114 -120.77338 14006 ft 373 kts 270°
2026-04-22 00:48 37.44259 -120.80614 13973 ft 374 kts 270°
2026-04-22 00:48 37.44392 -120.83775 13965 ft 358 kts 270°
2026-04-22 00:48 37.44525 -120.86832 13976 ft 341 kts 270°
2026-04-22 00:48 37.44657 -120.89754 13963 ft 326 kts 270°
2026-04-22 00:49 37.44788 -120.92603 13985 ft 327 kts 270°
2026-04-22 00:49 37.44920 -120.95456 13991 ft 326 kts 270°
2026-04-22 00:49 37.45054 -120.98297 13992 ft 325 kts 270°
2026-04-22 00:49 37.45189 -121.01132 13996 ft 324 kts 270°
2026-04-22 00:50 37.45325 -121.03963 13992 ft 323 kts 270°
2026-04-22 00:50 37.45461 -121.06785 13992 ft 323 kts 270°
2026-04-22 00:50 37.45596 -121.09581 13991 ft 323 kts 270°
2026-04-22 00:50 37.45731 -121.12399 13994 ft 323 kts 270°
2026-04-22 00:51 37.45866 -121.15228 13993 ft 324 kts 270°
2026-04-22 00:51 37.46001 -121.18066 13989 ft 325 kts 270°
2026-04-22 00:51 37.46135 -121.20922 13766 ft 329 kts 270°
2026-04-22 00:51 37.46270 -121.23801 13206 ft 331 kts 270°
2026-04-22 00:52 37.46406 -121.26704 12675 ft 331 kts 270°
2026-04-22 00:52 37.46540 -121.29563 12175 ft 332 kts 271°
2026-04-22 00:52 37.46675 -121.32462 11672 ft 332 kts 271°
2026-04-22 00:52 37.46809 -121.35364 11157 ft 332 kts 271°
2026-04-22 00:53 37.46943 -121.38264 10662 ft 331 kts 271°
2026-04-22 00:53 37.47075 -121.41152 10173 ft 331 kts 271°
2026-04-22 00:53 37.47207 -121.44041 9672 ft 329 kts 271°
2026-04-22 00:53 37.47336 -121.46915 9143 ft 328 kts 271°
2026-04-22 00:54 37.47464 -121.49785 8606 ft 327 kts 271°
2026-04-22 00:54 37.47592 -121.52615 8243 ft 321 kts 271°
2026-04-22 00:54 37.47716 -121.55316 7903 ft 294 kts 271°
2026-04-22 00:54 37.47827 -121.57759 7679 ft 268 kts 271°
2026-04-22 00:55 37.47926 -121.60019 7559 ft 253 kts 271°
2026-04-22 00:55 37.47994 -121.62224 7373 ft 250 kts 269°
2026-04-22 00:55 37.48187 -121.66547 7178 ft 248 kts 271°
2026-04-22 00:56 37.48289 -121.68701 7088 ft 245 kts 271°
2026-04-22 00:56 37.48386 -121.70832 7075 ft 243 kts 271°
2026-04-22 00:56 37.48479 -121.72956 7025 ft 242 kts 271°
2026-04-22 00:56 37.48557 -121.75054 6981 ft 234 kts 268°
2026-04-22 00:57 37.48614 -121.77094 7064 ft 243 kts 271°
2026-04-22 00:57 37.48729 -121.79300 7062 ft 259 kts 272°
2026-04-22 00:57 37.48840 -121.81550 7017 ft 253 kts 272°
2026-04-22 00:57 37.48937 -121.83713 6989 ft 244 kts 271°
2026-04-22 00:58 37.49027 -121.85827 7006 ft 240 kts 271°
2026-04-22 00:58 37.49118 -121.87963 7021 ft 248 kts 271°
2026-04-22 00:58 37.49236 -121.90145 6743 ft 259 kts 272°
2026-04-22 00:58 37.49364 -121.92362 6439 ft 247 kts 272°
2026-04-22 00:59 37.49485 -121.94464 6154 ft 235 kts 272°
2026-04-22 00:59 37.49600 -121.96470 5875 ft 226 kts 272°
2026-04-22 00:59 37.49714 -121.98448 5651 ft 227 kts 272°
2026-04-22 00:59 37.49829 -122.00433 5432 ft 227 kts 272°
2026-04-22 01:00 37.49943 -122.02427 5159 ft 229 kts 272°
2026-04-22 01:00 37.50057 -122.04440 4886 ft 231 kts 273°
2026-04-22 01:00 37.50173 -122.06465 4616 ft 233 kts 272°
2026-04-22 01:00 37.50304 -122.08506 4332 ft 231 kts 277°
2026-04-22 01:01 37.50813 -122.10384 4337 ft 219 kts 290°
2026-04-22 01:01 37.51443 -122.12052 4225 ft 209 kts 293°
2026-04-22 01:01 37.52121 -122.13706 3966 ft 215 kts 294°
2026-04-22 01:01 37.52817 -122.15363 3673 ft 218 kts 295°
2026-04-22 01:02 37.53525 -122.17049 3380 ft 215 kts 295°
2026-04-22 01:02 37.54203 -122.18657 3076 ft 200 kts 295°
2026-04-22 01:02 37.54820 -122.20126 2827 ft 181 kts 294°
2026-04-22 01:02 37.55382 -122.21464 2576 ft 164 kts 294°
2026-04-22 01:03 37.55879 -122.22649 2378 ft 142 kts 294°
2026-04-22 01:03 37.56331 -122.23730 2204 ft 141 kts 293°
2026-04-22 01:03 37.56790 -122.24832 2017 ft 143 kts 292°
2026-04-22 01:03 37.57254 -122.25936 1831 ft 143 kts 292°
2026-04-22 01:04 37.57718 -122.27041 1622 ft 141 kts 293°
2026-04-22 01:04 37.58174 -122.28133 1418 ft 140 kts 294°
2026-04-22 01:04 37.58634 -122.29230 1230 ft 143 kts 295°
2026-04-22 01:04 37.59103 -122.30352 1030 ft 146 kts 295°
2026-04-22 01:05 37.59565 -122.31453 813 ft 141 kts 295°
2026-04-22 01:05 37.60017 -122.32529 637 ft 137 kts 295°
2026-04-22 01:05 37.60452 -122.33564 424 ft 131 kts 296°
2026-04-22 01:05 37.60874 -122.34570 285 ft 131 kts 296°
2026-04-22 01:06 37.61297 -122.35574 105 ft 130 kts 296°
2026-04-22 01:06 37.61734 -122.36589 31 ft 122 kts 291°
2026-04-22 01:06 37.62070 -122.37426 23 ft 86 kts 297°
2026-04-22 01:06 37.62219 -122.37775 30 ft 50 kts 298°
2026-04-22 01:07 37.62315 -122.38001 27 ft 29 kts 298°
2026-04-22 01:07 37.62460 -122.38352 31 ft 57 kts 297°
2026-04-22 01:07 37.62637 -122.38776 29 ft 49 kts 299°
2026-04-22 01:07 37.62785 -122.39075 26 ft 37 kts 319°
2026-04-22 01:08 37.63006 -122.39208 30 ft 31 kts 338°
2026-04-22 01:08 37.63062 -122.39240 30 ft 1 kts 335°
2026-04-22 01:08 37.63150 -122.39240 26 ft 18 kts 38°
2026-04-22 01:08 37.63249 -122.39158 23 ft 19 kts 346°
2026-04-22 01:09 37.63366 -122.39132 22 ft 19 kts 61°
2026-04-22 01:09 37.63427 -122.39001 25 ft 13 kts 51°
2026-04-22 01:09 37.63501 -122.38928 20 ft 8 kts 28°
2026-04-22 01:09 37.63529 -122.38916 19 ft 0 kts 16°